Powrót do katalogu

TIROS 9

AktywnyPogodaPO
NORAD 978·PAYLOAD·🇺🇸 United States

Wystrzelony Jan 22, 1965 z Cape Canaveral Space Force Station

Loading…

Następne Przeloty (najbliższe 24 godziny)

TLE

ŚwieżeSource: Space-Track

Epoka: Sep 14, 2026, 14:11 UTC

1 00978U 65004A   26257.59118332 -.00000127  00000-0 -14117-3 0  9992
2 00978  96.4135   4.0648 1157518 201.6703 153.1321 12.11154862722438

Śledź TIROS 9 w czasie rzeczywistym z AllMySat

Download on the App Store